Time,TemperatureF,DewpointF,PressureIn,WindDirection,WindDirectionDegrees,WindSpeedMPH,WindSpeedGustMPH,Humidity,HourlyPrecipIn,Conditions,Clouds,dailyrainin,SoftwareType,DateUTC
2013-01-12 00:03:00,47.0,45.0,-100.00,ESE,120,2.0,7.0,94,-99.99,,,-99.99,,2013-01-12 05:03:00,
2013-01-12 00:12:00,47.0,45.0,-100.00,SE,125,2.0,4.0,94,-99.99,,,-99.99,,2013-01-12 05:12:00,
2013-01-12 00:22:00,47.0,45.0,-100.00,SE,125,2.0,4.0,94,-99.99,,,-99.99,,2013-01-12 05:22:00,
2013-01-12 00:32:00,47.0,45.0,-100.00,SE,145,1.0,4.0,94,-99.99,,,-99.99,,2013-01-12 05:32:00,
2013-01-12 00:42:00,47.0,45.0,-100.00,NE,50,2.0,4.0,94,-99.99,,,-99.99,,2013-01-12 05:42:00,
2013-01-12 00:52:00,47.0,45.0,-100.00,NE,50,2.0,4.0,94,-99.99,,,-99.99,,2013-01-12 05:52:00,
2013-01-12 01:03:00,46.0,45.0,-100.00,NW,320,2.0,6.0,94,-99.99,,,-99.99,,2013-01-12 06:03:00,
2013-01-12 01:12:00,47.0,45.0,-100.00,North,0,3.0,6.0,94,-99.99,,,-99.99,,2013-01-12 06:12:00,
2013-01-12 01:22:00,47.0,45.0,-100.00,North,0,3.0,6.0,94,-99.99,,,-99.99,,2013-01-12 06:22:00,
2013-01-12 01:33:00,46.0,45.0,-100.00,NW,325,2.0,4.0,94,-99.99,,,-99.99,,2013-01-12 06:33:00,
2013-01-12 01:43:00,46.0,45.0,-100.00,NW,325,2.0,4.0,94,-99.99,,,-99.99,,2013-01-12 06:43:00,
2013-01-12 04:32:00,45.0,44.0,-100.00,NNE,15,2.0,5.0,94,-99.99,,,-99.99,,2013-01-12 09:32:00,
2013-01-12 04:42:00,45.0,44.0,-100.00,North,0,3.0,7.0,94,-99.99,,,-99.99,,2013-01-12 09:42:00,
2013-01-12 04:53:00,45.0,44.0,-100.00,North,0,3.0,7.0,94,-99.99,,,-99.99,,2013-01-12 09:53:00,
2013-01-12 05:02:00,45.0,44.0,-100.00,North,350,3.0,6.0,94,-99.99,,,-99.99,,2013-01-12 10:02:00,
2013-01-12 05:12:00,45.0,44.0,-100.00,North,355,4.0,8.0,94,-99.99,,,-99.99,,2013-01-12 10:12:00,
2013-01-12 05:22:00,45.0,44.0,-100.00,North,355,4.0,8.0,94,-99.99,,,-99.99,,2013-01-12 10:22:00,
2013-01-12 05:32:00,45.0,44.0,-100.00,North,0,3.0,11.0,94,-99.99,,,-99.99,,2013-01-12 10:32:00,
2013-01-12 05:43:00,45.0,44.0,-100.00,North,0,5.0,12.0,94,-99.99,,,-99.99,,2013-01-12 10:43:00,
2013-01-12 05:52:00,45.0,44.0,-100.00,North,0,5.0,12.0,94,-99.99,,,-99.99,,2013-01-12 10:52:00,
2013-01-12 06:02:00,45.0,43.0,-100.00,North,0,4.0,8.0,94,-99.99,,,-99.99,,2013-01-12 11:02:00,
2013-01-12 06:12:00,45.0,43.0,-100.00,North,0,2.0,6.0,94,-99.99,,,-99.99,,2013-01-12 11:12:00,
2013-01-12 06:22:00,45.0,43.0,-100.00,North,0,2.0,6.0,94,-99.99,,,-99.99,,2013-01-12 11:22:00,
2013-01-12 06:33:00,45.0,43.0,-100.00,NW,320,4.0,7.0,94,-99.99,,,-99.99,,2013-01-12 11:33:00,
2013-01-12 06:42:00,45.0,43.0,-100.00,North,350,3.0,9.0,94,-99.99,,,-99.99,,2013-01-12 11:42:00,
2013-01-12 06:53:00,45.0,43.0,-100.00,North,350,3.0,9.0,94,-99.99,,,-99.99,,2013-01-12 11:53:00,
2013-01-12 07:03:00,45.0,43.0,-100.00,North,0,3.0,6.0,94,-99.99,,,-99.99,,2013-01-12 12:03:00,
2013-01-12 07:12:00,45.0,43.0,-100.00,NW,320,3.0,8.0,94,-99.99,,,-99.99,,2013-01-12 12:12:00,
2013-01-12 07:22:00,45.0,43.0,-100.00,NW,320,3.0,8.0,94,-99.99,,,-99.99,,2013-01-12 12:22:00,
2013-01-12 07:33:00,45.0,43.0,-100.00,North,0,3.0,8.0,94,-99.99,,,-99.99,,2013-01-12 12:33:00,
2013-01-12 07:43:00,45.0,43.0,-100.00,North,350,2.0,6.0,94,-99.99,,,-99.99,,2013-01-12 12:43:00,
2013-01-12 07:52:00,45.0,43.0,-100.00,North,350,2.0,6.0,94,-99.99,,,-99.99,,2013-01-12 12:52:00,
2013-01-12 08:03:00,45.0,43.0,-100.00,NW,305,2.0,6.0,94,-99.99,,,-99.99,,2013-01-12 13:03:00,
2013-01-12 08:12:00,45.0,43.0,-100.00,WNW,295,1.0,4.0,94,-99.99,,,-99.99,,2013-01-12 13:12:00,
2013-01-12 08:23:00,45.0,43.0,-100.00,WNW,295,1.0,4.0,94,-99.99,,,-99.99,,2013-01-12 13:23:00,
2013-01-12 08:33:00,45.0,43.0,-100.00,NNW,345,1.0,4.0,94,-99.99,,,-99.99,,2013-01-12 13:33:00,
2013-01-12 08:43:00,45.0,43.0,-100.00,North,5,3.0,8.0,94,-99.99,,,-99.99,,2013-01-12 13:43:00,
2013-01-12 08:53:00,45.0,43.0,-100.00,North,10,3.0,7.0,94,-99.99,,,-99.99,,2013-01-12 13:53:00,
2013-01-12 09:02:00,45.0,43.0,-100.00,North,10,3.0,7.0,94,-99.99,,,-99.99,,2013-01-12 14:02:00,
2013-01-12 09:12:00,45.0,43.0,-100.00,North,0,3.0,7.0,94,-99.99,,,-99.99,,2013-01-12 14:12:00,
2013-01-12 09:22:00,45.0,43.0,-100.00,North,0,3.0,7.0,94,-99.99,,,-99.99,,2013-01-12 14:22:00,
2013-01-12 09:33:00,45.0,44.0,-100.00,North,0,2.0,6.0,94,-99.99,,,-99.99,,2013-01-12 14:33:00,
2013-01-12 09:43:00,45.0,44.0,-100.00,North,350,2.0,7.0,94,-99.99,,,-99.99,,2013-01-12 14:43:00,
2013-01-12 09:53:00,45.0,44.0,-100.00,North,350,2.0,7.0,94,-99.99,,,-99.99,,2013-01-12 14:53:00,
2013-01-12 10:13:00,46.0,44.0,-100.00,NNE,15,4.0,6.0,94,-99.99,,,-99.99,,2013-01-12 15:13:00,
2013-01-12 10:23:00,46.0,44.0,-100.00,NNE,15,4.0,6.0,94,-99.99,,,-99.99,,2013-01-12 15:23:00,
2013-01-12 10:33:00,46.0,44.0,-100.00,NNW,340,4.0,7.0,94,-99.99,,,-99.99,,2013-01-12 15:33:00,
2013-01-12 10:43:00,46.0,44.0,-100.00,North,0,3.0,6.0,94,-99.99,,,-99.99,,2013-01-12 15:43:00,
2013-01-12 10:53:00,46.0,44.0,-100.00,North,0,3.0,6.0,94,-99.99,,,-99.99,,2013-01-12 15:53:00,
2013-01-12 11:03:00,46.0,45.0,-100.00,NNW,340,1.0,6.0,94,-99.99,,,-99.99,,2013-01-12 16:03:00,
2013-01-12 11:13:00,46.0,45.0,-100.00,NNW,340,1.0,6.0,94,-99.99,,,-99.99,,2013-01-12 16:13:00,
2013-01-12 12:02:00,47.0,45.0,-100.00,NNE,30,3.0,7.0,94,-99.99,,,-99.99,,2013-01-12 17:02:00,
2013-01-12 12:13:00,47.0,45.0,-100.00,NNE,25,6.0,8.0,94,-99.99,,,-99.99,,2013-01-12 17:13:00,
2013-01-12 12:23:00,47.0,45.0,-100.00,NNE,25,6.0,8.0,94,-99.99,,,-99.99,,2013-01-12 17:23:00,
2013-01-12 12:33:00,47.0,45.0,-100.00,North,5,4.0,9.0,94,-99.99,,,-99.99,,2013-01-12 17:33:00,
2013-01-12 12:43:00,47.0,45.0,-100.00,North,0,3.0,7.0,94,-99.99,,,-99.99,,2013-01-12 17:43:00,
2013-01-12 12:53:00,47.0,45.0,-100.00,North,0,3.0,7.0,94,-99.99,,,-99.99,,2013-01-12 17:53:00,
2013-01-12 13:12:00,47.0,46.0,-100.00,NNE,30,3.0,7.0,94,-99.99,,,-99.99,,2013-01-12 18:12:00,
2013-01-12 13:23:00,47.0,46.0,-100.00,NNE,30,3.0,7.0,94,-99.99,,,-99.99,,2013-01-12 18:23:00,
2013-01-12 13:33:00,48.0,46.0,-100.00,North,0,1.0,6.0,94,-99.99,,,-99.99,,2013-01-12 18:33:00,
2013-01-12 13:43:00,48.0,46.0,-100.00,North,0,2.0,5.0,94,-99.99,,,-99.99,,2013-01-12 18:43:00,
2013-01-12 13:52:00,48.0,46.0,-100.00,North,0,2.0,5.0,94,-99.99,,,-99.99,,2013-01-12 18:52:00,
2013-01-12 14:03:00,48.0,46.0,-100.00,North,0,3.0,5.0,94,-99.99,,,-99.99,,2013-01-12 19:03:00,
2013-01-12 14:12:00,48.0,46.0,-100.00,North,0,4.0,6.0,94,-99.99,,,-99.99,,2013-01-12 19:12:00,
2013-01-12 14:23:00,48.0,46.0,-100.00,North,0,4.0,6.0,94,-99.99,,,-99.99,,2013-01-12 19:23:00,
2013-01-12 14:33:00,48.0,46.0,-100.00,NW,320,1.0,5.0,94,-99.99,,,-99.99,,2013-01-12 19:33:00,
2013-01-12 14:43:00,48.0,46.0,-100.00,North,355,3.0,6.0,94,-99.99,,,-99.99,,2013-01-12 19:43:00,
2013-01-12 14:52:00,48.0,46.0,-100.00,North,355,3.0,6.0,94,-99.99,,,-99.99,,2013-01-12 19:52:00,
2013-01-12 15:03:00,48.0,46.0,-100.00,North,0,1.0,5.0,93,-99.99,,,-99.99,,2013-01-12 20:03:00,
2013-01-12 15:13:00,48.0,46.0,-100.00,North,350,3.0,5.0,93,-99.99,,,-99.99,,2013-01-12 20:13:00,
2013-01-12 15:22:00,48.0,46.0,-100.00,North,350,3.0,5.0,93,-99.99,,,-99.99,,2013-01-12 20:22:00,
2013-01-12 15:33:00,49.0,46.0,-100.00,ENE,75,4.0,5.0,91,-99.99,,,-99.99,,2013-01-12 20:33:00,
2013-01-12 15:43:00,49.0,45.0,-100.00,North,0,1.0,4.0,89,-99.99,,,-99.99,,2013-01-12 20:43:00,
2013-01-12 15:53:00,49.0,45.0,-100.00,North,0,1.0,4.0,89,-99.99,,,-99.99,,2013-01-12 20:53:00,
2013-01-12 16:03:00,49.0,45.0,-100.00,ESE,105,1.0,5.0,88,-99.99,,,-99.99,,2013-01-12 21:03:00,
2013-01-12 16:12:00,48.0,45.0,-100.00,ESE,120,1.0,3.0,88,-99.99,,,-99.99,,2013-01-12 21:12:00,
2013-01-12 16:22:00,48.0,45.0,-100.00,ESE,120,1.0,3.0,88,-99.99,,,-99.99,,2013-01-12 21:22:00,
2013-01-12 16:33:00,48.0,45.0,-100.00,North,350,2.0,5.0,88,-99.99,,,-99.99,,2013-01-12 21:33:00,
2013-01-12 16:43:00,48.0,45.0,-100.00,North,0,3.0,5.0,88,-99.99,,,-99.99,,2013-01-12 21:43:00,
2013-01-12 16:52:00,48.0,45.0,-100.00,North,0,3.0,5.0,88,-99.99,,,-99.99,,2013-01-12 21:52:00,
2013-01-12 17:03:00,48.0,45.0,-100.00,East,90,3.0,6.0,88,-99.99,,,-99.99,,2013-01-12 22:03:00,
2013-01-12 17:12:00,48.0,44.0,-100.00,NE,50,2.0,4.0,88,-99.99,,,-99.99,,2013-01-12 22:12:00,
2013-01-12 17:23:00,48.0,44.0,-100.00,NE,50,2.0,4.0,88,-99.99,,,-99.99,,2013-01-12 22:23:00,
2013-01-12 17:33:00,48.0,44.0,-100.00,East,95,1.0,4.0,88,-99.99,,,-99.99,,2013-01-12 22:33:00,
2013-01-12 17:43:00,48.0,45.0,-100.00,ENE,70,4.0,6.0,89,-99.99,,,-99.99,,2013-01-12 22:43:00,
2013-01-12 17:53:00,48.0,45.0,-100.00,ENE,70,4.0,6.0,89,-99.99,,,-99.99,,2013-01-12 22:53:00,
2013-01-12 18:03:00,48.0,45.0,-100.00,ENE,75,2.0,5.0,89,-99.99,,,-99.99,,2013-01-12 23:03:00,
2013-01-12 18:13:00,47.0,44.0,-100.00,ESE,110,1.0,4.0,89,-99.99,,,-99.99,,2013-01-12 23:13:00,
2013-01-12 18:23:00,47.0,44.0,-100.00,ESE,110,1.0,4.0,89,-99.99,,,-99.99,,2013-01-12 23:23:00,
2013-01-12 18:33:00,47.0,44.0,-100.00,NE,45,3.0,5.0,90,-99.99,,,-99.99,,2013-01-12 23:33:00,
2013-01-12 18:43:00,47.0,44.0,-100.00,NE,55,2.0,5.0,90,-99.99,,,-99.99,,2013-01-12 23:43:00,
2013-01-12 18:53:00,47.0,44.0,-100.00,NE,55,2.0,5.0,90,-99.99,,,-99.99,,2013-01-12 23:53:00,
2013-01-12 19:03:00,47.0,44.0,-100.00,NNE,25,2.0,5.0,91,-99.99,,,-99.99,,2013-01-13 00:03:00,
2013-01-12 19:12:00,47.0,44.0,-100.00,East,80,1.0,4.0,91,-99.99,,,-99.99,,2013-01-13 00:12:00,
2013-01-12 19:23:00,47.0,44.0,-100.00,East,80,1.0,4.0,91,-99.99,,,-99.99,,2013-01-13 00:23:00,
2013-01-12 19:33:00,47.0,44.0,-100.00,NE,55,1.0,3.0,91,-99.99,,,-99.99,,2013-01-13 00:33:00,
2013-01-12 19:43:00,47.0,44.0,-100.00,SE,140,1.0,2.0,91,-99.99,,,-99.99,,2013-01-13 00:43:00,
2013-01-12 19:52:00,47.0,44.0,-100.00,SE,140,1.0,2.0,91,-99.99,,,-99.99,,2013-01-13 00:52:00,
2013-01-12 20:12:00,46.0,44.0,-100.00,South,180,1.0,3.0,92,-99.99,,,-99.99,,2013-01-13 01:12:00,
2013-01-12 20:23:00,46.0,44.0,-100.00,South,180,1.0,3.0,92,-99.99,,,-99.99,,2013-01-13 01:23:00,
2013-01-12 20:33:00,46.0,44.0,-100.00,SE,125,2.0,3.0,92,-99.99,,,-99.99,,2013-01-13 01:33:00,
2013-01-12 20:43:00,46.0,44.0,-100.00,NE,55,0.0,3.0,92,-99.99,,,-99.99,,2013-01-13 01:43:00,
2013-01-12 20:52:00,46.0,44.0,-100.00,East,90,1.0,3.0,92,-99.99,,,-99.99,,2013-01-13 01:52:00,
2013-01-12 21:03:00,46.0,44.0,-100.00,East,90,1.0,3.0,92,-99.99,,,-99.99,,2013-01-13 02:03:00,
2013-01-12 21:13:00,46.0,44.0,-100.00,NNE,25,0.0,1.0,92,-99.99,,,-99.99,,2013-01-13 02:13:00,
2013-01-12 21:23:00,46.0,44.0,-100.00,NNE,25,0.0,1.0,92,-99.99,,,-99.99,,2013-01-13 02:23:00,
2013-01-12 21:33:00,46.0,44.0,-100.00,North,10,0.0,2.0,93,-99.99,,,-99.99,,2013-01-13 02:33:00,
2013-01-12 21:43:00,46.0,44.0,-100.00,North,0,0.0,2.0,93,-99.99,,,-99.99,,2013-01-13 02:43:00,
2013-01-12 21:53:00,46.0,44.0,-100.00,North,0,0.0,2.0,93,-99.99,,,-99.99,,2013-01-13 02:53:00,
2013-01-12 22:03:00,46.0,44.0,-100.00,NW,315,0.0,2.0,93,-99.99,,,-99.99,,2013-01-13 03:03:00,
2013-01-12 22:12:00,46.0,44.0,-100.00,South,175,0.0,2.0,93,-99.99,,,-99.99,,2013-01-13 03:12:00,
2013-01-12 22:22:00,46.0,44.0,-100.00,South,175,0.0,2.0,93,-99.99,,,-99.99,,2013-01-13 03:22:00,
2013-01-12 22:33:00,46.0,44.0,-100.00,NW,310,1.0,2.0,93,-99.99,,,-99.99,,2013-01-13 03:33:00,
2013-01-12 22:43:00,46.0,44.0,-100.00,WSW,245,0.0,1.0,93,-99.99,,,-99.99,,2013-01-13 03:43:00,
2013-01-12 22:52:00,45.0,43.0,-100.00,WNW,285,0.0,1.0,93,-99.99,,,-99.99,,2013-01-13 03:52:00,
2013-01-12 23:03:00,45.0,43.0,-100.00,WNW,285,0.0,1.0,93,-99.99,,,-99.99,,2013-01-13 04:03:00,
2013-01-12 23:12:00,45.0,43.0,-100.00,WSW,240,0.0,2.0,93,-99.99,,,-99.99,,2013-01-13 04:12:00,
2013-01-12 23:22:00,45.0,43.0,-100.00,WSW,240,0.0,2.0,93,-99.99,,,-99.99,,2013-01-13 04:22:00,
2013-01-12 23:33:00,45.0,43.0,-100.00,SW,215,1.0,3.0,93,-99.99,,,-99.99,,2013-01-13 04:33:00,
2013-01-12 23:43:00,45.0,44.0,-100.00,SSE,165,0.0,2.0,93,-99.99,,,-99.99,,2013-01-13 04:43:00,
2013-01-12 23:52:00,45.0,44.0,-100.00,SSE,165,0.0,2.0,93,-99.99,,,-99.99,,2013-01-13 04:52:00,